Home > Weather > Jhelum > Past weeks

Flag for Pakistan Weather for the Past 2 Weeks in Jhelum, Pakistan

Now
46 °F

Fog.


Feels Like: 46 °F
Forecast: 44 / 70 °F
Wind: No wind

Location: Islamabad Airport

Current Time: Feb 14, 2016 at 4:56:42 AM

Latest Report: Feb 14, 2016 at 4:00 AM


Visibility: 2 mi

Pressure: 30.09 "Hg

Humidity: 82%

Dew point: 41 °F

Location of JhelumLocation

Historic Weather in Jhelum — Graph

°F

Jhelum Temperature Yesterday

Maximum temperature yesterday: 68 °F (at 3:00 PM)
Minimum temperature yesterday: 43 °F (at 2:00 AM)
Average temperature yesterday: 53 °F

High & Low Weather Summary for the Past Weeks

 TemperatureHumidityPressure
High84 °F (Feb 9, 6:00 PM)100% (Jan 30, 3:00 AM)30.15 "Hg (Jan 30, 3:00 AM)
Low41 °F (Jan 31, 6:00 AM)27% (Feb 5, 2:00 PM)29.80 "Hg (Feb 10, 5:00 PM)
Average55 °F68%30.03 "Hg
* Reported Jan 30 3:00 AM — Feb 14 3:00 AM, Jhelum, Weather by CustomWeather, © 2016

Note: Actual official high and low records may vary slightly from our data, if they occured in-between our weather recording intervals... More about our weather records

Advertising

Jhelum Weather History for the Previous 24 Hours

 ConditionsComfort  
Time TempWeatherWind HumidityBarometerVisibility
3:00 AM
Sun, Feb 14
46 °FFog.No wind82%30.09 "Hg2 mi
2:00 AM46 °FFog.5 mph82%30.09 "Hg2 mi
1:00 AM48 °FHaze.5 mph76%30.09 "Hg2 mi
12:00 AM50 °FHaze.No wind76%30.09 "Hg2 mi
11:00 PM
Sat, Feb 13
52 °FHaze.5 mph77%30.09 "Hg2 mi
10:00 PM54 °FHaze.5 mph72%30.09 "Hg2 mi
9:00 PM55 °FHaze.5 mph67%30.09 "Hg2 mi
7:30 PM61 °FHaze.5 mph63%30.07 "Hg3 mi
7:00 PM61 °FHaze.5 mph63%30.07 "Hg3 mi
6:00 PM63 °FHaze.7 mph56%30.07 "Hg3 mi
4:00 PM68 °FClear.16 mph35%30.04 "Hg4 mi
3:00 PM68 °FClear.18 mph35%30.07 "Hg4 mi
2:00 PM66 °FClear.18 mph40%30.07 "Hg4 mi
1:00 PM64 °FClear.5 mph49%30.07 "Hg4 mi
12:00 PM63 °FClear.No wind49%30.09 "Hg4 mi
11:30 AM57 °FClear.No wind59%30.09 "Hg4 mi
11:00 AM57 °FClear.No wind59%30.09 "Hg4 mi
10:00 AM54 °FHaze.5 mph63%30.09 "Hg2 mi
9:30 AM50 °FHaze.5 mph76%30.07 "Hg2 mi
9:00 AM50 °FHaze.5 mph76%30.07 "Hg2 mi
8:30 AM43 °FFog.No wind87%30.01 "Hg2 mi
8:00 AM43 °FFog.No wind87%30.01 "Hg2 mi
7:00 AM43 °FFog.No wind87%29.98 "Hg2 mi
6:00 AM43 °FFog.5 mph87%29.95 "Hg2 mi
5:00 AM43 °FFog.5 mph87%29.95 "Hg2 mi
4:00 AM43 °FFog.5 mph87%29.95 "Hg2 mi
Weather by CustomWeather, © 2016

See weather overviewHow to use our weather pages